Starlink 30454

operational
NORAD ID: 57915 Int'l Des: 2023-147 Owner: SPXS Country: US Constellation: starlink
LEOCIRCULAR

关于 Starlink 30454

正在加载描述...

实时位置

正在加载3D地球...

即将过境

高度历史

Altitude vs Time

uPlot chart will show altitude changes over time

两行轨道根数

1 57915U 23147C 26093.62020985 -.00002263 00000-0 -74708-4 0 9991
2 57915 43.0050 184.1646 0002898 263.2741 96.7781 15.26729896140416
Epoch: Apr 3, 2026 • Age: 17 hours

当前状态

高度 487.1 km
速度 7.62 km/s
星下点 -11.78°S, 146.6°W
发射日期 Sep 24, 2023
运行时间 2.5 years
类型 internet

技术详情

分类 Payload
质量 730.00 kg
干质量 700.00 kg
总质量 730.00 kg
长度 0.30 m
直径 4.10 m
跨度 29.00 m
形状 Box + pan
制造商 SPXS
平台类型 Starlink V2M
阶段状态 In Orbit
所有者/国家 SPXS/US

大型星座

Loading constellations...